Weather History for KJKL - June, 2014

Change the Weather History Date:

Monday, June 9, 2014

  Actual Average Record
Temperature  
Mean Temperature 67 °F 71 °F  
Max Temperature 73 °F 80 °F 90 °F (1999)
Min Temperature 61 °F 61 °F 49 °F (1988)
Degree Days  
Heating Degree Days 0 1  
Month to date heating degree days 0 9  
Since 1 June heating degree days 0 9  
Since 1 July heating degree days 4509 4231  
Cooling Degree Days 2 6  
Month to date cooling degree days 59 49  
Year to date cooling degree days 250 185  
Since 1 June cooling degree days 59 49  
Growing Degree Days 16 (Base 50)    
Moisture  
Dew Point 59 °F    
Average Humidity 82    
Maximum Humidity 90    
Minimum Humidity 73    
Precipitation  
Precipitation T in 0.17 in 1.06 in (2013)
Month to date precipitation 0.81 1.51  
Year to date precipitation 21.67 22.02  
Snow  
Snow 0.00 in 0.00 in - ()
Month to date snowfall 0.0 0.0  
Since 1 June snowfall 0.0 0.0  
Since 1 July snowfall 38.9 23.5  
Snow Depth 0.00 in    
Sea Level Pressure  
Sea Level Pressure 29.95 in    
Wind  
Wind Speed 0 mph (WNW)    
Max Wind Speed 5 mph    
Max Gust Speed 7 mph    
Visibility 7 miles    
Events      
T = Trace of Precipitation, MM = Missing Value Source: NWS Daily Summary

Daily Weather History Graph

Daily Weather History Graph

Search for Another Location

Airport or City:

Trip Planner

Search our weather history database for the weather conditions in past years. The results will help you decide how hot, cold, wet, or windy it might be!

Date:

Astronomy

Jun. 09, 2014 Rise Set
Actual Time 6:11 AM EDT 8:53 PM EDT
Civil Twilight 5:40 AM EDT 9:24 PM EDT
Nautical Twilight 5:01 AM EDT 10:03 PM EDT
Astronomical Twilight 4:18 AM EDT 10:47 PM EDT
Moon 5:17 PM EDT (6/9) 3:33 AM EDT (6/9)
Length of Visible Light 15h 44m
Length of Day
14h 42m
Waxing Gibbous, 85% of the Moon is Illuminated
Jun 9
Waxing Gibbous
Jun 13
Full
Jun 19
Last Quarter
Jun 27
New
Jul 5
First Quarter

Hourly Weather History & Observations

Time (EDT) Temp. Dew Point Humidity Pressure Visibility Wind Dir Wind Speed Gust Speed Precip Events Conditions
12:53 AM 62.1 °F 57.9 °F 86% 29.96 in 9.0 mi Calm Calm - N/A   Overcast
1:53 AM 62.1 °F 57.9 °F 86% 29.94 in 9.0 mi Calm Calm - N/A   Overcast
2:53 AM 62.1 °F 57.9 °F 86% 29.94 in 8.0 mi Calm Calm - N/A   Overcast
3:53 AM 62.1 °F 57.9 °F 86% 29.92 in 8.0 mi Calm Calm - N/A   Overcast
4:53 AM 62.1 °F 57.9 °F 86% 29.93 in 9.0 mi Calm Calm - N/A   Overcast
5:53 AM 62.1 °F 57.0 °F 84% 29.94 in 9.0 mi Calm Calm - N/A   Overcast
6:16 AM 62.1 °F 57.9 °F 86% 29.97 in 8.0 mi WNW 4.6 mph - N/A   Overcast
6:53 AM 61.0 °F 57.9 °F 90% 29.97 in 6.0 mi WNW 3.5 mph - N/A   Overcast
7:25 AM 62.1 °F 57.9 °F 86% 29.99 in 6.0 mi Calm Calm - N/A   Overcast
7:53 AM 62.1 °F 57.9 °F 86% 29.96 in 6.0 mi Calm Calm - N/A   Overcast
8:39 AM 62.1 °F 57.9 °F 86% 29.98 in 5.0 mi Calm Calm - N/A   Overcast
8:53 AM 62.1 °F 57.9 °F 86% 29.96 in 5.0 mi Calm Calm - N/A   Overcast
9:10 AM 62.1 °F 57.9 °F 86% 29.99 in 5.0 mi Calm Calm - N/A   Overcast
9:20 AM 63.0 °F 57.9 °F 84% 29.99 in 5.0 mi Calm Calm - N/A   Haze
9:53 AM 63.0 °F 59.0 °F 87% 29.95 in 5.0 mi Calm Calm - N/A   Overcast
10:53 AM 64.4 °F 59.0 °F 83% 29.98 in 5.0 mi Calm Calm - N/A   Haze
11:51 AM 68.0 °F 59.0 °F 73% 29.99 in 7.0 mi Variable 3.5 mph - N/A   Overcast
11:53 AM 68.0 °F 59.0 °F 73% 29.96 in 7.0 mi Variable 3.5 mph - N/A   Overcast
12:36 PM 68.0 °F 60.8 °F 78% 29.99 in 8.0 mi Calm Calm - N/A   Overcast
12:53 PM 68.0 °F 59.0 °F 73% 29.96 in 8.0 mi Variable 3.5 mph - N/A   Overcast
3:53 PM 69.8 °F 60.8 °F 73% 29.95 in 9.0 mi Calm Calm - N/A   Overcast
4:53 PM 70.0 °F 61.0 °F 73% 29.90 in 8.0 mi Calm Calm - N/A   Partly Cloudy
5:53 PM 69.1 °F 61.0 °F 75% 29.90 in 7.0 mi Calm Calm - N/A   Overcast
6:53 PM 68.0 °F 60.1 °F 76% 29.89 in 8.0 mi Calm Calm - N/A   Overcast
7:53 PM 69.1 °F 60.1 °F 73% 29.91 in 8.0 mi Calm Calm - N/A   Mostly Cloudy
8:53 PM 64.9 °F 60.1 °F 84% 29.91 in 6.0 mi Calm Calm - N/A   Haze
9:53 PM 66.9 °F 60.1 °F 79% 29.93 in 8.0 mi Calm Calm - N/A   Mostly Cloudy
10:53 PM 64.9 °F 59.0 °F 81% 29.93 in 8.0 mi Calm Calm - N/A   Clear
11:53 PM 64.0 °F 60.1 °F 87% 29.93 in 6.0 mi Calm Calm - N/A   Clear